Jackson, KY

3:07 PM EST on November 15, 2019 (GMT -0500)
Carroll

Weather History for KJKL - September, 2019

Change the Weather History Date:

Saturday, September 14, 2019

  Actual Average Record
Temperature  
Mean Temperature 78 °F 69 °F  
Max Temperature 89 °F 79 °F 95 °F (1998)
Min Temperature 66 °F 59 °F 45 °F (1985)
Degree Days  
Heating Degree Days 0 1  
Month to date heating degree days 0 6  
Since 1 July heating degree days 0 8  
Cooling Degree Days 13 5  
Month to date cooling degree days 174 90  
Year to date cooling degree days 1311 1068  
Growing Degree Days 30 (Base 50)    
Moisture  
Dew Point 61 °F    
Average Humidity 55    
Maximum Humidity 84    
Minimum Humidity 26    
Precipitation  
Precipitation 0.00 in 0.12 in 0.86 in (1989)
Month to date precipitation 0.00 1.56  
Year to date precipitation 39.46 35.11  
Snow  
Snow 0.00 in 0.00 in - ()
Month to date snowfall 0.0 0.0  
Since 1 July snowfall 0.0 0.0  
Since 1 September snowfall 0.0 0.0  
Snow Depth 0.00 in    
Sea Level Pressure  
Sea Level Pressure 30.19 in    
Wind  
Wind Speed 2 mph (West)    
Max Wind Speed 12 mph    
Max Gust Speed 19 mph    
Visibility 10 miles    
Events      
T = Trace of Precipitation, MM = Missing Value Source: NWS Daily Summary

Daily Weather History Graph

Daily Weather History Graph

Search for Another Location

Airport or City:

Astronomy

Sep. 14, 2019 Rise Set
Actual Time 7:14 AM EDT 7:42 PM EDT
Civil Twilight 6:47 AM EDT 8:09 PM EDT
Nautical Twilight 6:16 AM EDT 8:40 PM EDT
Astronomical Twilight 5:45 AM EDT 9:11 PM EDT
Moon 8:23 PM EDT (9/14) 7:27 AM EDT (9/14)
Length of Visible Light 13h 21m
Length of Day
12h 28m
Full, 100% of the Moon is Illuminated
Sep 14
Full
Sep 21
Last Quarter
Sep 28
New
Oct 5
First Quarter
Oct 13
Full

Hourly Weather History & Observations

Time (EDT) Temp. Heat Index Dew Point Humidity Pressure Visibility Wind Dir Wind Speed Gust Speed Precip Events Conditions
12:53 AM 78.1 °F - 68.0 °F 71% 30.14 in 10.0 mi Calm Calm - N/A   Mostly Cloudy
1:53 AM 75.9 °F - 68.0 °F 76% 30.13 in 10.0 mi SSW 3.5 mph - N/A   Clear
2:53 AM 75.9 °F - 68.0 °F 76% 30.13 in 10.0 mi Calm Calm - N/A   Partly Cloudy
3:53 AM 75.0 °F - 69.1 °F 82% 30.14 in 10.0 mi Calm Calm - N/A   Partly Cloudy
4:53 AM 73.9 °F - 68.0 °F 82% 30.14 in 10.0 mi Calm Calm - N/A   Clear
5:53 AM 73.9 °F - 68.0 °F 82% 30.16 in 10.0 mi Calm Calm - N/A   Mostly Cloudy
6:53 AM 73.0 °F - 68.0 °F 84% 30.18 in 10.0 mi Calm Calm - N/A   Mostly Cloudy
7:53 AM 72.0 °F - 66.9 °F 84% 30.20 in 10.0 mi Calm Calm - N/A   Scattered Clouds
8:53 AM 75.0 °F - 66.9 °F 76% 30.22 in 10.0 mi Calm Calm - N/A   Clear
9:53 AM 75.9 °F - 66.9 °F 74% 30.23 in 10.0 mi Calm Calm - N/A   Scattered Clouds
10:53 AM 78.1 °F - 66.9 °F 68% 30.24 in 10.0 mi Variable 3.5 mph - N/A   Clear
11:53 AM 82.9 °F 85.4 °F 66.9 °F 58% 30.23 in 10.0 mi Variable 3.5 mph - N/A   Clear
12:53 PM 82.9 °F 84.4 °F 64.0 °F 53% 30.22 in 10.0 mi Variable 4.6 mph - N/A   Mostly Cloudy
1:53 PM 86.0 °F 86.1 °F 61.0 °F 43% 30.21 in 10.0 mi NW 9.2 mph 17.3 mph N/A   Partly Cloudy
2:53 PM 88.0 °F 86.5 °F 55.9 °F 34% 30.19 in 10.0 mi Variable 5.8 mph - N/A   Clear
3:53 PM 88.0 °F - 52.0 °F 29% 30.17 in 10.0 mi Variable 5.8 mph 16.1 mph N/A   Clear
4:53 PM 88.0 °F - 48.0 °F 25% 30.16 in 10.0 mi WNW 6.9 mph - N/A   Clear
5:53 PM 84.9 °F - 46.0 °F 26% 30.16 in 10.0 mi Variable 6.9 mph - N/A   Clear
6:53 PM 81.0 °F - 50.0 °F 34% 30.18 in 10.0 mi Variable 3.5 mph - N/A   Clear
7:53 PM 75.9 °F - 54.0 °F 46% 30.20 in 10.0 mi Calm Calm - N/A   Clear
8:53 PM 73.0 °F - 53.1 °F 49% 30.21 in 10.0 mi Calm Calm - N/A   Clear
9:53 PM 71.1 °F - 53.1 °F 53% 30.22 in 10.0 mi Calm Calm - N/A   Clear
11:53 PM 68.0 °F - 54.0 °F 61% 30.21 in 10.0 mi Calm Calm - N/A   Clear